Regional Weather Roundup
Issued by NWS

Home | Current Version | Previous Version | Graphics & Text | Print | Product List | Glossary Off
Versions: 1 2 3 4 5 6 7 8 9 10 11 12 13 14 15 16 17 18 19 20 21 22 23 24 25 26 27 28 29 30 31 32 33 34 35 36 37 38 39 40 41 42 43 44 45 46 47 48 49 50

000
ASUS43 KTOP 171108
RWRKS

WEATHER ROUNDUP FOR KANSAS
NATIONAL WEATHER SERVICE GOODLAND KS
600 AM CDT THU AUG 17 2017

NOTE:  "FAIR" INDICATES FEW OR NO CLOUDS BELOW 12,000 FEET WITH NO
SIGNIFICANT WEATHER AND/OR OBSTRUCTIONS TO VISIBILITY.

KSZ001>006-013>018-027>032-041>047-171200-
NORTHWEST KANSAS

CITY           SKY/WX    TMP DP  RH WIND       PRES   REMARKS
GOODLAND       CLEAR     55  53  93 SW7       30.12R
HAYS           CLEAR     59  58  96 NW5       30.04S
HILL CITY      CLEAR     58  57  97 W7        30.06R
RUSSELL        CLEAR     60  58  92 W7        30.02R
$$

KSZ061>065-074>080-084>089-171200-
SOUTHWEST KANSAS

CITY           SKY/WX    TMP DP  RH WIND       PRES   REMARKS
DODGE CITY     CLEAR     58  56  93 NW6       30.07S
ELKHART          N/A     63  59  87 E1          N/A
GARDEN CITY    CLEAR     56  55  97 W6        30.10R
GREAT BEND     CLEAR     59  58  96 NW8       30.02F
LIBERAL        CLOUDY    61  58  90 NW3       30.11R
PRATT          CLEAR     60  57  89 NW6       30.03S
$$

KSZ066>073-081>083-090>101-171200-
SOUTHEAST KANSAS

CITY           SKY/WX    TMP DP  RH WIND       PRES   REMARKS
CHANUTE        CLOUDY    69  68  96 W5        29.94R FOG
COFFEYVILLE    CLOUDY    69  68  96 SW7       29.93R FOG
HUTCHINSON     CLEAR     62  60  93 NW7       29.99R
MEDICINE LODGE   N/A     63  60  90 CALM      30.00F
NEWTON         CLEAR     64  62  93 NW7       29.99R
PARSONS        CLOUDY    67  66  97 CALM      29.94R
WICHITA INTL   PTCLDY    66  63  90 NW6       29.97R
WICHITA JABRA  CLEAR     64  63  96 NW7       29.97R
WICHITA MCCONL CLEAR     66  62  88 N8        29.98R
WINFIELD       CLOUDY    67  66  97 NW6       29.97R
$$

KSZ007>012-019>026-033>040-048>060-102>105-171200-
NORTHEAST KANSAS

CITY           SKY/WX    TMP DP  RH WIND       PRES   REMARKS
CONCORDIA      CLEAR     60  60 100 W8        29.98R
EMPORIA        CLEAR     64  63  96 W3        29.95R
LAWRENCE       CLOUDY    65  65 100 CALM      29.91R
MANHATTAN      CLEAR     64  63  96 CALM      29.95R
MARYSVILLE     CLEAR     61  61 100 W5        29.94S
OLATHE IND     CLOUDY    67  64  90 NW8       29.92R
OLATHE EXE     CLOUDY    66  65  96 NW6       29.91R
SALINA         CLEAR     63  60  90 CALM      29.99R
TOPEKA BILLARD CLEAR     66  66 100 W3        29.92R
TOPEKA FORBES  CLEAR     67  65  93 W8        29.92S
$$



USA.gov is the U.S. government's official web portal to all federal, state and local government web resources and services.